User: anonymous   Login
Location: Unspecified
(0.0000°N, 0.0000°E)
Time: 17:00:38
(UTC+00:00)
Language:

FORMOSAT 3B - Orbit

View from above orbital plane
View from above orbital plane
View from above satellite
View from above satellite

Ground track
Ground track

The orbit data is extracted from the following two-line orbital elements,

1 29048U 06011B   17264.94134845 +.00000013 +00000-0 +21567-4 0  9998
2 29048 071.9654 261.8094 0046083 300.0503 059.6065 14.28535371601062
Epoch (UTC): 21 September 2017 22:35:32
Eccentricity: 0.0046083
inclination: 71.9654°
perigee height: 763 km
apogee height: 829 km
right ascension of ascending node: 261.8094°
argument of perigee: 300.0503°
revolutions per day: 14.28535371
mean anomaly at epoch: 59.6065°
orbit number at epoch: 60106

The dashed part of the orbit path shows where the satellite is in the earth's shadow,  

DLR